• In Netherlands
  • List of Countries
  • For 7 days
  • Water Temperature
  • Satellite Maps
  • Weather Map
  • Weather Widgets
  • user-avatar
    Login

    Hourly Weather San Luis

    Today, 24 March, Friday

    Time Temperature Precipitation Wind Pressure Humidity
    00:00 +22°C° 0 mm 3 mps 698 mmHg 50%
    01:00 +22°C° 0 mm 4 mps 698 mmHg 49%
    02:00 +22°C° 0 mm 4 mps 698 mmHg 48%
    03:00 +21°C° 0 mm 4 mps 698 mmHg 49%
    04:00 +21°C° 0 mm 4 mps 698 mmHg 50%
    05:00 +21°C° 0 mm 5 mps 697 mmHg 51%
    06:00 +22°C° 0 mm 5 mps 698 mmHg 53%
    07:00 +22°C° 0 mm 5 mps 698 mmHg 56%
    08:00 +23°C° 0 mm 5 mps 699 mmHg 58%
    09:00 +26°C° 0 mm 5 mps 699 mmHg 50%
    10:00 +28°C° 0 mm 5 mps 699 mmHg 42%
    11:00 +30°C° 0 mm 4 mps 699 mmHg 34%
    12:00 +32°C° 0 mm 4 mps 699 mmHg 31%
    13:00 +33°C° 0 mm 4 mps 698 mmHg 29%
    14:00 +34°C° 0 mm 4 mps 698 mmHg 26%
    15:00 +33°C° 0 mm 4 mps 697 mmHg 26%
    16:00 +33°C° 0 mm 4 mps 697 mmHg 25%
    17:00 +33°C° 0 mm 4 mps 696 mmHg 25%
    18:00 +30°C° 0 mm 4 mps 696 mmHg 29%
    19:00 +27°C° 0 mm 4 mps 696 mmHg 33%
    20:00 +25°C° 0 mm 3 mps 696 mmHg 37%
    21:00 +24°C° 0 mm 3 mps 696 mmHg 38%
    22:00 +24°C° 0 mm 3 mps 696 mmHg 39%
    23:00 +22°C° 0 mm 3 mps 696 mmHg 40%

    Tomorrow, 25 March, Saturday

    Time Temperature Precipitation Wind Pressure Humidity
    00:00 +22°C° 0 mm 4 mps 696 mmHg 42%
    01:00 +22°C° 0 mm 5 mps 696 mmHg 45%
    02:00 +22°C° 0 mm 5 mps 696 mmHg 47%
    03:00 +22°C° 0.1 mm 5 mps 696 mmHg 51%
    04:00 +21°C° 0.1 mm 5 mps 696 mmHg 55%
    05:00 +21°C° 0.1 mm 5 mps 696 mmHg 59%
    06:00 +22°C° 0.4 mm 6 mps 696 mmHg 59%
    07:00 +22°C° 0.4 mm 6 mps 697 mmHg 58%
    08:00 +23°C° 0.4 mm 6 mps 697 mmHg 58%
    09:00 +26°C° 0.7 mm 6 mps 697 mmHg 53%
    10:00 +27°C° 0.7 mm 6 mps 698 mmHg 48%
    11:00 +29°C° 0.7 mm 7 mps 698 mmHg 43%
    12:00 +30°C° 0.8 mm 6 mps 698 mmHg 41%
    13:00 +30°C° 0.8 mm 6 mps 697 mmHg 39%
    14:00 +32°C° 0.8 mm 5 mps 697 mmHg 38%
    15:00 +32°C° 0.7 mm 5 mps 696 mmHg 38%
    16:00 +30°C° 0.7 mm 4 mps 696 mmHg 39%
    17:00 +30°C° 0.7 mm 4 mps 695 mmHg 39%
    18:00 +28°C° 0.3 mm 3 mps 695 mmHg 46%
    19:00 +26°C° 0.3 mm 3 mps 695 mmHg 52%
    20:00 +24°C° 0.3 mm 3 mps 695 mmHg 58%
    21:00 +22°C° 0.2 mm 3 mps 696 mmHg 61%
    22:00 +22°C° 0.2 mm 4 mps 696 mmHg 63%
    23:00 +22°C° 0.2 mm 4 mps 696 mmHg 66%

    Day after tomorrow, 26 March, Sunday

    Time Temperature Precipitation Wind Pressure Humidity
    00:00 +22°C° 0.4 mm 5 mps 696 mmHg 67%
    01:00 +22°C° 0.4 mm 5 mps 696 mmHg 68%
    02:00 +22°C° 0.4 mm 6 mps 696 mmHg 70%
    03:00 +21°C° 0.7 mm 6 mps 695 mmHg 71%
    04:00 +21°C° 0.7 mm 6 mps 695 mmHg 73%
    05:00 +21°C° 0.7 mm 6 mps 695 mmHg 75%
    06:00 +22°C° 0.3 mm 6 mps 695 mmHg 73%
    07:00 +22°C° 0.3 mm 6 mps 696 mmHg 70%
    08:00 +23°C° 0.3 mm 6 mps 696 mmHg 68%
    09:00 +26°C° 0.4 mm 6 mps 697 mmHg 60%
    10:00 +28°C° 0.4 mm 6 mps 697 mmHg 52%
    11:00 +30°C° 0.4 mm 6 mps 697 mmHg 44%
    12:00 +32°C° 0.6 mm 5 mps 697 mmHg 42%
    13:00 +32°C° 0.6 mm 5 mps 696 mmHg 39%
    14:00 +33°C° 0.6 mm 4 mps 696 mmHg 37%
    15:00 +33°C° 0.3 mm 4 mps 695 mmHg 37%
    16:00 +33°C° 0.3 mm 3 mps 695 mmHg 37%
    17:00 +31°C° 0.3 mm 2 mps 695 mmHg 37%
    18:00 +29°C° 0.4 mm 2 mps 695 mmHg 44%
    19:00 +27°C° 0.4 mm 2 mps 695 mmHg 51%
    20:00 +25°C° 0.4 mm 2 mps 695 mmHg 58%
    21:00 +24°C° 0.4 mm 3 mps 696 mmHg 61%
    22:00 +24°C° 0.4 mm 3 mps 697 mmHg 63%
    23:00 +23°C° 0.4 mm 4 mps 697 mmHg 66%

    27 March, Monday

    Time Temperature Precipitation Wind Pressure Humidity
    00:00 +22°C° 0.4 mm 4 mps 697 mmHg 69%
    01:00 +22°C° 0.4 mm 4 mps 697 mmHg 71%
    02:00 +22°C° 0.4 mm 4 mps 697 mmHg 73%
    03:00 +22°C° 0.5 mm 4 mps 697 mmHg 75%
    04:00 +21°C° 0.5 mm 3 mps 697 mmHg 78%
    05:00 +21°C° 0.5 mm 3 mps 697 mmHg 81%
    06:00 +21°C° 0.2 mm 2 mps 698 mmHg 79%
    07:00 +23°C° 0.2 mm 2 mps 698 mmHg 77%
    08:00 +23°C° 0.2 mm 2 mps 699 mmHg 75%
    09:00 +25°C° 0.5 mm 2 mps 699 mmHg 67%
    10:00 +27°C° 0.5 mm 2 mps 700 mmHg 58%
    11:00 +29°C° 0.5 mm 3 mps 700 mmHg 50%
    12:00 +30°C° 0.1 mm 3 mps 700 mmHg 45%
    13:00 +30°C° 0.1 mm 2 mps 699 mmHg 41%
    14:00 +31°C° 0.1 mm 2 mps 699 mmHg 37%
    15:00 +31°C° 0.1 mm 2 mps 698 mmHg 36%
    16:00 +31°C° 0.1 mm 2 mps 698 mmHg 36%
    17:00 +31°C° 0.1 mm 2 mps 698 mmHg 35%
    18:00 +29°C° 0.2 mm 2 mps 698 mmHg 44%
    19:00 +27°C° 0.2 mm 3 mps 698 mmHg 53%
    20:00 +25°C° 0.2 mm 3 mps 698 mmHg 62%
    21:00 +24°C° 0.6 mm 3 mps 698 mmHg 66%
    22:00 +24°C° 0.6 mm 3 mps 699 mmHg 69%
    23:00 +22°C° 0.6 mm 3 mps 699 mmHg 73%

    28 March, Tuesday

    Time Temperature Precipitation Wind Pressure Humidity
    00:00 +22°C° 0.9 mm 3 mps 699 mmHg 75%
    01:00 +22°C° 0.9 mm 4 mps 699 mmHg 77%
    02:00 +22°C° 0.9 mm 4 mps 699 mmHg 79%
    03:00 +22°C° 0.3 mm 4 mps 699 mmHg 80%
    04:00 +21°C° 0.3 mm 4 mps 699 mmHg 81%
    05:00 +21°C° 0.3 mm 3 mps 699 mmHg 82%
    06:00 +22°C° 0.3 mm 3 mps 699 mmHg 78%
    07:00 +24°C° 0.3 mm 3 mps 700 mmHg 75%
    08:00 +23°C° 0.3 mm 4 mps 700 mmHg 72%
    09:00 +26°C° 1.1 mm 4 mps 700 mmHg 64%
    10:00 +28°C° 1.1 mm 4 mps 700 mmHg 57%
    11:00 +30°C° 1.1 mm 5 mps 701 mmHg 50%
    12:00 +30°C° 1.1 mm 5 mps 700 mmHg 49%
    13:00 +30°C° 1.1 mm 5 mps 699 mmHg 47%
    14:00 +32°C° 1.1 mm 5 mps 699 mmHg 46%
    15:00 +32°C° 1.4 mm 5 mps 698 mmHg 48%
    16:00 +30°C° 1.4 mm 4 mps 698 mmHg 50%
    17:00 +30°C° 1.4 mm 4 mps 698 mmHg 51%
    18:00 +28°C° 1.5 mm 4 mps 698 mmHg 59%
    19:00 +26°C° 1.5 mm 3 mps 698 mmHg 66%
    20:00 +24°C° 1.5 mm 3 mps 698 mmHg 73%
    21:00 +24°C° 0.7 mm 3 mps 698 mmHg 75%
    22:00 +22°C° 0.7 mm 4 mps 698 mmHg 78%
    23:00 +22°C° 0.7 mm 4 mps 698 mmHg 80%

    29 March, Wednesday

    Time Temperature Precipitation Wind Pressure Humidity
    00:00 +22°C° 0.7 mm 4 mps 697 mmHg 80%
    01:00 +22°C° 0.7 mm 5 mps 697 mmHg 81%
    02:00 +22°C° 0.7 mm 5 mps 696 mmHg 82%
    03:00 +21°C° 0.3 mm 5 mps 696 mmHg 82%
    04:00 +21°C° 0.3 mm 5 mps 696 mmHg 82%
    05:00 +21°C° 0.3 mm 5 mps 695 mmHg 83%
    06:00 +22°C° 0.8 mm 6 mps 695 mmHg 80%
    07:00 +22°C° 0.8 mm 6 mps 696 mmHg 78%
    08:00 +23°C° 0.8 mm 7 mps 696 mmHg 76%
    09:00 +24°C° 0.4 mm 8 mps 696 mmHg 70%
    10:00 +27°C° 0.4 mm 10 mps 695 mmHg 63%
    11:00 +28°C° 0.4 mm 11 mps 695 mmHg 57%
    12:00 +29°C° 1 mm 11 mps 694 mmHg 56%
    13:00 +29°C° 1 mm 11 mps 694 mmHg 56%
    14:00 +29°C° 1 mm 11 mps 693 mmHg 56%
    15:00 +29°C° 0.6 mm 10 mps 693 mmHg 56%
    16:00 +29°C° 0.6 mm 9 mps 692 mmHg 57%
    17:00 +29°C° 0.6 mm 8 mps 692 mmHg 57%
    18:00 +27°C° 2.9 mm 6 mps 692 mmHg 66%
    19:00 +25°C° 2.9 mm 5 mps 693 mmHg 74%
    20:00 +22°C° 2.9 mm 3 mps 693 mmHg 83%
    21:00 +22°C° 2.6 mm 3 mps 694 mmHg 83%
    22:00 +22°C° 2.6 mm 4 mps 694 mmHg 83%
    23:00 +21°C° 2.6 mm 4 mps 695 mmHg 83%
    Show more